DFC428 VNKT-OPSD

Flight info

Callsign DFC428
Flight time 2h 12m
Altitude 34000
Route DARKE1H NARAN DCT HW DCT KNG DCT ATNUS DCT MESAR DCT KAGLO/N0464F350 DCT BUNGI DCT DELDA DCT BIREB
Aircraft B737/M-SDE2E3FGHIRWXY/LB1

Departure

Time 2026-04-29 00:20
Airport Tribhuvan International Airport (VNKT)

Arrival

Time 2026-04-29 02:33
Airport Skardu International Airport (OPSD)
Time Latitude Longitude Altitude Speed Heading
2026-04-28 23:13 27.69884 85.35781 4367 ft 0 kts 292°
2026-04-29 00:09 27.69879 85.35794 4352 ft 2 kts 296°
2026-04-29 00:09 27.69871 85.35811 4361 ft 2 kts 300°
2026-04-29 00:10 27.69862 85.35827 4355 ft 2 kts 307°
2026-04-29 00:10 27.69852 85.35841 4354 ft 2 kts 316°
2026-04-29 00:10 27.69839 85.35853 4358 ft 2 kts 330°
2026-04-29 00:10 27.69824 85.35860 4350 ft 2 kts 349°
2026-04-29 00:11 27.69807 85.35861 4350 ft 2 kts
2026-04-29 00:11 27.69794 85.35857 4350 ft 1 kts 20°
2026-04-29 00:11 27.69792 85.35857 4351 ft 0 kts 21°
2026-04-29 00:15 27.69807 85.35863 4358 ft 7 kts 21°
2026-04-29 00:15 27.69872 85.35892 4364 ft 11 kts 22°
2026-04-29 00:15 27.69944 85.35924 4365 ft 11 kts 22°
2026-04-29 00:16 27.70013 85.35956 4355 ft 11 kts 22°
2026-04-29 00:16 27.70080 85.35986 4367 ft 10 kts 22°
2026-04-29 00:16 27.70146 85.36016 4372 ft 10 kts 22°
2026-04-29 00:16 27.70212 85.36046 4363 ft 11 kts 22°
2026-04-29 00:17 27.70282 85.36078 4374 ft 11 kts 22°
2026-04-29 00:17 27.70350 85.36110 4383 ft 11 kts 22°
2026-04-29 00:17 27.70417 85.36141 4383 ft 10 kts 22°
2026-04-29 00:17 27.70482 85.36171 4385 ft 10 kts 22°
2026-04-29 00:18 27.70544 85.36200 4390 ft 10 kts 26°
2026-04-29 00:18 27.70565 85.36221 4391 ft 0 kts 61°
2026-04-29 00:19 27.70573 85.36266 4392 ft 8 kts 99°
2026-04-29 00:19 27.70530 85.36303 4392 ft 16 kts 180°
2026-04-29 00:20 27.70150 85.36138 4365 ft 100 kts 202°
2026-04-29 00:20 27.69268 85.35738 4345 ft 170 kts 201°
2026-04-29 00:20 27.68035 85.35182 4737 ft 205 kts 201°
2026-04-29 00:20 27.66672 85.34525 5468 ft 223 kts 204°
2026-04-29 00:21 27.65213 85.33730 6168 ft 239 kts 207°
2026-04-29 00:21 27.63872 85.32684 7058 ft 236 kts 231°
2026-04-29 00:21 27.63238 85.30946 7419 ft 251 kts 269°
2026-04-29 00:21 27.63728 85.29098 8051 ft 253 kts 308°
2026-04-29 00:22 27.65126 85.28005 9064 ft 249 kts 341°
2026-04-29 00:22 27.66858 85.27585 9757 ft 259 kts 340°
2026-04-29 00:22 27.68350 85.26479 10469 ft 257 kts 311°
2026-04-29 00:22 27.69716 85.25186 11245 ft 264 kts 334°
2026-04-29 00:23 27.71560 85.24912 11973 ft 277 kts
2026-04-29 00:23 27.73304 85.25888 12694 ft 291 kts 41°
2026-04-29 00:23 27.74382 85.27848 13387 ft 303 kts 73°
2026-04-29 00:23 27.74464 85.30241 14062 ft 309 kts 97°
2026-04-29 00:24 27.74477 85.32671 14701 ft 312 kts 71°
2026-04-29 00:24 27.75331 85.34872 15437 ft 309 kts 58°
2026-04-29 00:24 27.76246 85.37095 16052 ft 319 kts 77°
2026-04-29 00:24 27.76173 85.39586 16721 ft 321 kts 110°
2026-04-29 00:25 27.75031 85.41716 17391 ft 320 kts 140°
2026-04-29 00:25 27.73194 85.43102 18050 ft 318 kts 159°
2026-04-29 00:25 27.71160 85.44107 18644 ft 320 kts 166°
2026-04-29 00:25 27.68981 85.44449 19222 ft 314 kts 189°
2026-04-29 00:26 27.66879 85.43929 19919 ft 306 kts 206°
2026-04-29 00:26 27.65018 85.42815 20553 ft 302 kts 222°
2026-04-29 00:26 27.63573 85.41124 21168 ft 299 kts 238°
2026-04-29 00:26 27.62623 85.39042 21777 ft 300 kts 253°
2026-04-29 00:27 27.62255 85.36736 22408 ft 302 kts 269°
2026-04-29 00:27 27.62515 85.34377 22995 ft 308 kts 285°
2026-04-29 00:27 27.63397 85.32183 23570 ft 315 kts 300°
2026-04-29 00:27 27.64699 85.30126 23821 ft 330 kts 302°
2026-04-29 00:28 27.66082 85.27968 23932 ft 348 kts 302°
2026-04-29 00:28 27.67522 85.25692 24025 ft 365 kts 302°
2026-04-29 00:28 27.69019 85.23310 24122 ft 381 kts 302°
2026-04-29 00:28 27.70538 85.20795 24203 ft 394 kts 298°
2026-04-29 00:29 27.71715 85.17964 24281 ft 404 kts 288°
2026-04-29 00:29 27.72747 85.14959 24343 ft 417 kts 290°
2026-04-29 00:29 27.73855 85.11896 24406 ft 427 kts 287°
2026-04-29 00:29 27.74347 85.08576 24430 ft 433 kts 268°
2026-04-29 00:30 27.74085 85.05162 24517 ft 440 kts 263°
2026-04-29 00:30 27.73722 85.01740 24611 ft 445 kts 263°
2026-04-29 00:30 27.73351 84.98259 24749 ft 449 kts 263°
2026-04-29 00:30 27.72987 84.94754 24957 ft 451 kts 263°
2026-04-29 00:31 27.72632 84.91228 25221 ft 451 kts 263°
2026-04-29 00:31 27.72286 84.87710 25455 ft 453 kts 263°
2026-04-29 00:31 27.71942 84.84169 25662 ft 454 kts 263°
2026-04-29 00:31 27.71597 84.80613 25843 ft 456 kts 263°
2026-04-29 00:32 27.71251 84.77042 25992 ft 459 kts 263°
2026-04-29 00:32 27.70904 84.73465 26244 ft 459 kts 263°
2026-04-29 00:32 27.70556 84.69879 26386 ft 461 kts 263°
2026-04-29 00:32 27.70203 84.66272 26574 ft 463 kts 263°
2026-04-29 00:33 27.69849 84.62672 26788 ft 463 kts 263°
2026-04-29 00:33 27.69490 84.59032 26963 ft 465 kts 263°
2026-04-29 00:33 27.69131 84.55401 27179 ft 465 kts 263°
2026-04-29 00:33 27.68773 84.51778 27456 ft 465 kts 263°
2026-04-29 00:34 27.68419 84.48197 27747 ft 464 kts 263°
2026-04-29 00:34 27.68302 84.44517 28061 ft 464 kts 271°
2026-04-29 00:34 27.68646 84.40970 28716 ft 457 kts 278°
2026-04-29 00:34 27.69401 84.37512 29421 ft 452 kts 286°
2026-04-29 00:35 27.70410 84.34177 30084 ft 446 kts 286°
2026-04-29 00:35 27.71417 84.30855 30336 ft 450 kts 286°
2026-04-29 00:35 27.72429 84.27481 30413 ft 457 kts 286°
2026-04-29 00:36 27.74470 84.20588 30646 ft 467 kts 285°
2026-04-29 00:36 27.75492 84.17104 30876 ft 468 kts 285°
2026-04-29 00:36 27.76511 84.13620 31258 ft 466 kts 285°
2026-04-29 00:36 27.77525 84.10150 31611 ft 465 kts 285°
2026-04-29 00:37 27.78536 84.06680 31847 ft 466 kts 285°
2026-04-29 00:37 27.79552 84.03186 32117 ft 467 kts 285°
2026-04-29 00:37 27.80567 83.99694 32469 ft 466 kts 285°
2026-04-29 00:37 27.81576 83.96221 32825 ft 466 kts 285°
2026-04-29 00:38 27.82571 83.92791 33167 ft 465 kts 285°
2026-04-29 00:38 27.83578 83.89317 33474 ft 464 kts 285°
2026-04-29 00:38 27.84582 83.85851 33789 ft 464 kts 285°
2026-04-29 00:39 27.86594 83.78896 33839 ft 465 kts 285°
2026-04-29 00:39 27.88595 83.71956 33836 ft 463 kts 284°
2026-04-29 00:40 27.90582 83.65057 33846 ft 460 kts 284°
2026-04-29 00:40 27.92563 83.58161 33872 ft 460 kts 284°
2026-04-29 00:41 27.94545 83.51237 33852 ft 469 kts 284°
2026-04-29 00:41 27.96560 83.44192 33829 ft 471 kts 284°
2026-04-29 00:42 27.98576 83.37133 33829 ft 471 kts 284°
2026-04-29 00:42 28.00589 83.30073 33828 ft 471 kts 284°
2026-04-29 00:43 28.02589 83.23030 33838 ft 470 kts 284°
2026-04-29 00:43 28.04587 83.15993 33839 ft 469 kts 284°
2026-04-29 00:44 28.06565 83.09000 33817 ft 469 kts 284°
2026-04-29 00:44 28.08552 83.01972 33834 ft 468 kts 284°
2026-04-29 00:45 28.10530 82.94950 33823 ft 468 kts 284°
2026-04-29 00:45 28.12505 82.87925 33823 ft 468 kts 284°
2026-04-29 00:46 28.14475 82.80899 33820 ft 467 kts 284°
2026-04-29 00:46 28.16439 82.73886 33832 ft 467 kts 284°
2026-04-29 00:47 28.18401 82.66860 33824 ft 467 kts 284°
2026-04-29 00:47 28.20357 82.59843 33819 ft 467 kts 284°
2026-04-29 00:48 28.22300 82.52856 33817 ft 467 kts 284°
2026-04-29 00:48 28.24250 82.45833 33814 ft 467 kts 284°
2026-04-29 00:49 28.26199 82.38795 33827 ft 467 kts 284°
2026-04-29 00:49 28.28146 82.31742 33807 ft 468 kts 284°
2026-04-29 00:50 28.30090 82.24685 33808 ft 468 kts 284°
2026-04-29 00:50 28.32030 82.17635 33802 ft 468 kts 284°
2026-04-29 00:51 28.33966 82.10581 33812 ft 467 kts 284°
2026-04-29 00:51 28.35893 82.03544 33798 ft 466 kts 285°
2026-04-29 00:52 28.37814 81.96521 33804 ft 465 kts 285°
2026-04-29 00:52 28.39717 81.89534 33793 ft 466 kts 285°
2026-04-29 00:53 28.41629 81.82501 33791 ft 466 kts 285°
2026-04-29 00:53 28.43537 81.75471 33789 ft 465 kts 285°
2026-04-29 00:54 28.45438 81.68447 33788 ft 465 kts 285°
2026-04-29 00:54 28.47334 81.61430 33779 ft 464 kts 285°
2026-04-29 00:55 28.49227 81.54408 33784 ft 464 kts 285°
2026-04-29 00:55 28.51114 81.47389 33765 ft 462 kts 285°
2026-04-29 00:56 28.52961 81.40510 33758 ft 452 kts 285°
2026-04-29 00:56 28.53863 81.37151 33741 ft 436 kts 285°
2026-04-29 00:56 28.54745 81.33860 33780 ft 436 kts 285°
2026-04-29 00:57 28.56527 81.27174 33777 ft 448 kts 285°
2026-04-29 00:57 28.58350 81.20326 33768 ft 456 kts 285°
2026-04-29 00:58 28.60185 81.13430 33744 ft 454 kts 285°
2026-04-29 00:58 28.62010 81.06560 33748 ft 452 kts 285°
2026-04-29 00:59 28.63821 80.99720 33751 ft 450 kts 285°
2026-04-29 00:59 28.65591 80.93026 33753 ft 441 kts 285°
2026-04-29 01:00 28.67350 80.86352 33756 ft 439 kts 285°
2026-04-29 01:00 28.69103 80.79685 33753 ft 438 kts 285°
2026-04-29 01:01 28.70845 80.73044 33753 ft 437 kts 285°
2026-04-29 01:01 28.72584 80.66405 33748 ft 437 kts 285°
2026-04-29 01:02 28.74315 80.59778 33755 ft 436 kts 285°
2026-04-29 01:02 28.76032 80.53194 33747 ft 435 kts 285°
2026-04-29 01:03 28.77751 80.46585 33749 ft 434 kts 285°
2026-04-29 01:03 28.79468 80.39973 33744 ft 434 kts 285°
2026-04-29 01:04 28.81175 80.33384 33742 ft 433 kts 285°
2026-04-29 01:04 28.82875 80.26803 33737 ft 432 kts 285°
2026-04-29 01:05 28.84286 80.21333 33736 ft 432 kts 285°
2026-04-29 01:05 28.86255 80.13684 33735 ft 432 kts 285°
2026-04-29 01:06 28.87945 80.07098 33745 ft 435 kts 285°
2026-04-29 01:06 28.89371 80.01534 33739 ft 442 kts 285°
2026-04-29 01:07 28.91085 79.94831 33720 ft 435 kts 285°
2026-04-29 01:07 28.92766 79.88242 33730 ft 431 kts 285°
2026-04-29 01:08 28.94437 79.81677 33728 ft 430 kts 285°
2026-04-29 01:08 28.96101 79.75125 33726 ft 429 kts 285°
2026-04-29 01:09 28.97760 79.68578 33728 ft 428 kts 285°
2026-04-29 01:09 28.99411 79.62045 33723 ft 428 kts 285°
2026-04-29 01:10 29.01061 79.55508 33721 ft 428 kts 285°
2026-04-29 01:10 29.03083 79.49128 33715 ft 429 kts 299°
2026-04-29 01:11 29.06681 79.43750 33715 ft 432 kts 316°
2026-04-29 01:11 29.11263 79.39277 33723 ft 433 kts 318°
2026-04-29 01:12 29.15873 79.34830 33728 ft 434 kts 317°
2026-04-29 01:12 29.20476 79.30343 33725 ft 434 kts 317°
2026-04-29 01:13 29.25040 79.25860 33733 ft 435 kts 317°
2026-04-29 01:13 29.29625 79.21342 33727 ft 435 kts 317°
2026-04-29 01:14 29.34217 79.16809 33736 ft 435 kts 317°
2026-04-29 01:14 29.38809 79.12274 33734 ft 436 kts 317°
2026-04-29 01:15 29.43405 79.07727 33740 ft 436 kts 317°
2026-04-29 01:15 29.47994 79.03183 33739 ft 436 kts 317°
2026-04-29 01:16 29.52591 78.98625 33748 ft 436 kts 317°
2026-04-29 01:16 29.57145 78.94104 33748 ft 436 kts 317°
2026-04-29 01:17 29.61739 78.89537 33752 ft 435 kts 317°
2026-04-29 01:17 29.66330 78.84968 33754 ft 435 kts 317°
2026-04-29 01:18 29.70903 78.80412 33766 ft 434 kts 317°
2026-04-29 01:18 29.77720 78.73608 33764 ft 434 kts 317°
2026-04-29 01:19 29.82286 78.69046 33776 ft 433 kts 317°
2026-04-29 01:19 29.86841 78.64487 33766 ft 434 kts 317°
2026-04-29 01:20 29.91396 78.59922 33774 ft 434 kts 316°
2026-04-29 01:20 29.95954 78.55347 33780 ft 434 kts 316°
2026-04-29 01:21 30.00511 78.50769 33781 ft 435 kts 316°
2026-04-29 01:21 30.05053 78.46200 33776 ft 435 kts 316°
2026-04-29 01:22 30.09625 78.41594 33783 ft 436 kts 316°
2026-04-29 01:22 30.14199 78.36983 33782 ft 436 kts 316°
2026-04-29 01:23 30.18774 78.32363 33806 ft 437 kts 316°
2026-04-29 01:23 30.23359 78.27726 33804 ft 439 kts 316°
2026-04-29 01:24 30.27964 78.23064 33804 ft 440 kts 316°
2026-04-29 01:24 30.32545 78.18420 33806 ft 441 kts 316°
2026-04-29 01:25 30.37171 78.13724 33797 ft 442 kts 316°
2026-04-29 01:25 30.41798 78.09023 33797 ft 442 kts 316°
2026-04-29 01:26 30.46432 78.04307 33813 ft 442 kts 316°
2026-04-29 01:26 30.51055 77.99596 33809 ft 442 kts 316°
2026-04-29 01:27 30.55648 77.94909 33793 ft 442 kts 316°
2026-04-29 01:27 30.60259 77.90199 33808 ft 441 kts 316°
2026-04-29 01:28 30.64871 77.85480 33817 ft 442 kts 316°
2026-04-29 01:28 30.69494 77.80744 33824 ft 442 kts 316°
2026-04-29 01:29 30.74103 77.76016 33829 ft 442 kts 316°
2026-04-29 01:29 30.78687 77.71308 33840 ft 442 kts 316°
2026-04-29 01:30 30.83296 77.66568 33846 ft 442 kts 316°
2026-04-29 01:30 30.87909 77.61817 33833 ft 442 kts 316°
2026-04-29 01:31 30.92506 77.57078 33858 ft 440 kts 316°
2026-04-29 01:31 30.97090 77.52343 33859 ft 440 kts 316°
2026-04-29 01:32 31.01638 77.47640 33855 ft 440 kts 316°
2026-04-29 01:32 31.06216 77.42901 33860 ft 439 kts 316°
2026-04-29 01:33 31.10787 77.38160 33866 ft 439 kts 315°
2026-04-29 01:33 31.15353 77.33421 33861 ft 439 kts 316°
2026-04-29 01:34 31.19913 77.28681 33873 ft 438 kts 315°
2026-04-29 01:34 31.24463 77.23944 33878 ft 438 kts 315°
2026-04-29 01:35 31.29019 77.19195 33852 ft 438 kts 315°
2026-04-29 01:35 31.33567 77.14449 33877 ft 438 kts 315°
2026-04-29 01:36 31.38091 77.09719 33875 ft 439 kts 315°
2026-04-29 01:36 31.42659 77.04938 33869 ft 441 kts 315°
2026-04-29 01:37 31.47241 77.00137 33863 ft 443 kts 315°
2026-04-29 01:37 31.51843 76.95307 33870 ft 444 kts 315°
2026-04-29 01:38 31.56444 76.90471 33847 ft 445 kts 315°
2026-04-29 01:38 31.61027 76.85648 33839 ft 445 kts 315°
2026-04-29 01:39 31.65636 76.80792 33848 ft 445 kts 315°
2026-04-29 01:39 31.70255 76.75918 33837 ft 446 kts 315°
2026-04-29 01:40 31.74876 76.71034 33829 ft 447 kts 315°
2026-04-29 01:40 31.79496 76.66144 33830 ft 447 kts 315°
2026-04-29 01:41 31.84116 76.61248 33820 ft 447 kts 315°
2026-04-29 01:41 31.88740 76.56341 33827 ft 447 kts 315°
2026-04-29 01:42 31.93359 76.51432 33837 ft 447 kts 315°
2026-04-29 01:42 31.97977 76.46516 33842 ft 448 kts 315°
2026-04-29 01:43 32.02572 76.41620 33848 ft 448 kts 315°
2026-04-29 01:43 32.07194 76.36686 33861 ft 448 kts 315°
2026-04-29 01:44 32.11827 76.31733 33858 ft 449 kts 315°
2026-04-29 01:44 32.16454 76.26777 33864 ft 449 kts 315°
2026-04-29 01:45 32.20665 76.21348 33864 ft 448 kts 308°
2026-04-29 01:45 32.24655 76.15693 33861 ft 448 kts 308°
2026-04-29 01:46 32.28670 76.10037 33841 ft 449 kts 308°
2026-04-29 01:46 32.32713 76.04404 33831 ft 449 kts 308°
2026-04-29 01:47 32.36765 75.98773 33818 ft 449 kts 308°
2026-04-29 01:47 32.40788 75.93175 33797 ft 449 kts 308°
2026-04-29 01:48 32.44843 75.87524 33797 ft 450 kts 308°
2026-04-29 01:48 32.48893 75.81870 33793 ft 450 kts 308°
2026-04-29 01:49 32.52943 75.76206 33794 ft 450 kts 308°
2026-04-29 01:49 32.56964 75.70573 33800 ft 450 kts 308°
2026-04-29 01:50 32.61007 75.64901 33802 ft 450 kts 308°
2026-04-29 01:50 32.65049 75.59222 33807 ft 450 kts 308°
2026-04-29 01:51 32.69090 75.53537 33805 ft 450 kts 308°
2026-04-29 01:51 32.73597 75.48433 33821 ft 454 kts 325°
2026-04-29 01:52 32.79417 75.45487 33835 ft 457 kts 343°
2026-04-29 01:52 32.84533 75.43948 33835 ft 457 kts 344°
2026-04-29 01:53 32.90707 75.42073 33842 ft 457 kts 343°
2026-04-29 01:53 32.96849 75.40149 33861 ft 457 kts 343°
2026-04-29 01:54 33.02999 75.38195 33880 ft 457 kts 343°
2026-04-29 01:54 33.09148 75.36237 33895 ft 457 kts 343°
2026-04-29 01:55 33.15295 75.34278 33910 ft 457 kts 343°
2026-04-29 01:55 33.21418 75.32324 33927 ft 458 kts 343°
2026-04-29 01:56 33.27580 75.30356 33957 ft 458 kts 343°
2026-04-29 01:56 33.33749 75.28382 33965 ft 458 kts 343°
2026-04-29 01:57 33.39914 75.26407 33985 ft 459 kts 343°
2026-04-29 01:57 33.46065 75.24397 34002 ft 458 kts 339°
2026-04-29 01:58 33.48981 75.22865 34002 ft 455 kts 328°
2026-04-29 01:58 33.51598 75.20757 34008 ft 453 kts 319°
2026-04-29 01:58 33.55919 75.15391 34021 ft 453 kts 309°
2026-04-29 01:59 33.60137 75.09640 34027 ft 465 kts 309°
2026-04-29 01:59 33.64465 75.03798 34012 ft 468 kts 310°
2026-04-29 02:00 33.68806 74.97983 34020 ft 466 kts 310°
2026-04-29 02:00 33.73132 74.92193 34035 ft 465 kts 310°
2026-04-29 02:01 33.77417 74.86446 34044 ft 464 kts 310°
2026-04-29 02:01 33.81719 74.80667 34049 ft 463 kts 310°
2026-04-29 02:02 33.86007 74.74895 34049 ft 462 kts 310°
2026-04-29 02:02 33.90291 74.69119 34039 ft 462 kts 309°
2026-04-29 02:03 33.94562 74.63349 34056 ft 462 kts 310°
2026-04-29 02:03 33.98843 74.57558 34046 ft 463 kts 309°
2026-04-29 02:04 34.03103 74.51787 34041 ft 464 kts 309°
2026-04-29 02:04 34.07394 74.45963 34045 ft 465 kts 309°
2026-04-29 02:05 34.11700 74.40110 34036 ft 466 kts 309°
2026-04-29 02:05 34.16015 74.34233 34032 ft 468 kts 309°
2026-04-29 02:06 34.20337 74.28338 34029 ft 469 kts 309°
2026-04-29 02:06 34.24670 74.22419 34014 ft 470 kts 309°
2026-04-29 02:07 34.29002 74.16490 34016 ft 470 kts 309°
2026-04-29 02:07 34.33272 74.10640 33992 ft 456 kts 309°
2026-04-29 02:08 34.37396 74.04981 34000 ft 446 kts 309°
2026-04-29 02:08 34.41502 73.99329 34018 ft 448 kts 309°
2026-04-29 02:09 34.45619 73.93656 34008 ft 449 kts 309°
2026-04-29 02:09 34.49761 73.87939 34016 ft 451 kts 309°
2026-04-29 02:10 34.53882 73.82243 34004 ft 452 kts 309°
2026-04-29 02:10 34.58026 73.76508 34003 ft 451 kts 309°
2026-04-29 02:11 34.62158 73.70777 33994 ft 451 kts 309°
2026-04-29 02:11 34.66285 73.65045 33996 ft 450 kts 309°
2026-04-29 02:12 34.70385 73.59341 34000 ft 447 kts 309°
2026-04-29 02:12 34.74927 73.54255 33991 ft 449 kts 333°
2026-04-29 02:13 34.77893 73.53084 33989 ft 452 kts 351°
2026-04-29 02:13 34.81027 73.53036 34017 ft 453 kts
2026-04-29 02:13 34.84073 73.54013 34006 ft 455 kts 23°
2026-04-29 02:13 34.86744 73.55974 34038 ft 455 kts 37°
2026-04-29 02:14 34.91735 73.60754 34046 ft 457 kts 38°
2026-04-29 02:14 34.96733 73.65571 34055 ft 458 kts 38°
2026-04-29 02:15 35.01774 73.70365 34060 ft 460 kts 38°
2026-04-29 02:15 35.06841 73.75154 34070 ft 461 kts 38°
2026-04-29 02:16 35.11915 73.79953 34068 ft 462 kts 38°
2026-04-29 02:16 35.16993 73.84766 34032 ft 471 kts 38°
2026-04-29 02:17 35.22244 73.89754 34025 ft 484 kts 38°
2026-04-29 02:17 35.27603 73.94852 33999 ft 489 kts 38°
2026-04-29 02:18 35.32961 73.99959 33985 ft 488 kts 38°
2026-04-29 02:18 35.38311 74.05074 33995 ft 486 kts 39°
2026-04-29 02:19 35.42846 74.11097 33991 ft 485 kts 57°
2026-04-29 02:19 35.46017 74.18369 33995 ft 483 kts 64°
2026-04-29 02:20 35.49034 74.25752 33998 ft 484 kts 64°
2026-04-29 02:20 35.50570 74.29455 33420 ft 492 kts 64°
2026-04-29 02:20 35.52136 74.33201 32599 ft 492 kts 63°
2026-04-29 02:21 35.53699 74.36926 31717 ft 492 kts 63°
2026-04-29 02:21 35.55265 74.40657 30816 ft 492 kts 63°
2026-04-29 02:21 35.56833 74.44397 29810 ft 493 kts 63°
2026-04-29 02:21 35.58400 74.48144 28619 ft 493 kts 63°
2026-04-29 02:22 35.59964 74.51888 27487 ft 492 kts 63°
2026-04-29 02:22 35.61528 74.55641 26296 ft 492 kts 63°
2026-04-29 02:22 35.63070 74.59342 25186 ft 492 kts 63°
2026-04-29 02:22 35.64641 74.63026 24425 ft 482 kts 61°
2026-04-29 02:23 35.66279 74.66606 23571 ft 477 kts 60°
2026-04-29 02:23 35.67905 74.70121 22500 ft 472 kts 60°
2026-04-29 02:23 35.69479 74.73616 21761 ft 461 kts 63°
2026-04-29 02:23 35.70552 74.77305 20765 ft 458 kts 80°
2026-04-29 02:24 35.70724 74.81175 19982 ft 449 kts 94°
2026-04-29 02:24 35.70166 74.84932 19118 ft 444 kts 107°
2026-04-29 02:24 35.69235 74.88526 18260 ft 439 kts 108°
2026-04-29 02:25 35.67449 74.95610 16449 ft 429 kts 107°
2026-04-29 02:25 35.66599 74.99090 15650 ft 421 kts 107°
2026-04-29 02:25 35.65766 75.02530 15080 ft 411 kts 107°
2026-04-29 02:25 35.64966 75.05845 15313 ft 408 kts 107°
2026-04-29 02:26 35.64156 75.09202 15699 ft 412 kts 107°
2026-04-29 02:26 35.63341 75.12570 16046 ft 419 kts 107°
2026-04-29 02:26 35.62501 75.16036 16411 ft 424 kts 107°
2026-04-29 02:26 35.61658 75.19508 16761 ft 424 kts 107°
2026-04-29 02:27 35.60804 75.23022 16755 ft 430 kts 107°
2026-04-29 02:27 35.59980 75.26412 16706 ft 399 kts 107°
2026-04-29 02:27 35.59210 75.29576 16451 ft 374 kts 107°
2026-04-29 02:27 35.58490 75.32527 16305 ft 349 kts 107°
2026-04-29 02:28 35.57591 75.35181 16131 ft 327 kts 127°
2026-04-29 02:28 35.56027 75.36999 16192 ft 296 kts 143°
2026-04-29 02:28 35.54397 75.38382 16006 ft 274 kts 152°
2026-04-29 02:28 35.52756 75.39436 15584 ft 263 kts 153°
2026-04-29 02:29 35.51140 75.40465 14943 ft 262 kts 153°
2026-04-29 02:29 35.49535 75.41509 14357 ft 258 kts 150°
2026-04-29 02:29 35.48002 75.42652 13574 ft 255 kts 148°
2026-04-29 02:29 35.46564 75.43755 12672 ft 237 kts 148°
2026-04-29 02:30 35.45197 75.44808 11802 ft 227 kts 148°
2026-04-29 02:30 35.43875 75.45822 10912 ft 222 kts 148°
2026-04-29 02:30 35.42583 75.46816 10134 ft 215 kts 147°
2026-04-29 02:30 35.41408 75.47787 9629 ft 199 kts 145°
2026-04-29 02:31 35.40279 75.48729 8965 ft 193 kts 146°
2026-04-29 02:31 35.39200 75.49623 8506 ft 180 kts 146°
2026-04-29 02:31 35.38219 75.50411 8223 ft 159 kts 148°
2026-04-29 02:31 35.37303 75.51100 7880 ft 152 kts 147°
2026-04-29 02:32 35.36430 75.51812 7685 ft 150 kts 147°
2026-04-29 02:32 35.35555 75.52512 7481 ft 149 kts 147°
2026-04-29 02:32 35.34703 75.53188 7343 ft 138 kts 147°
2026-04-29 02:32 35.34027 75.53733 7344 ft 89 kts 147°
2026-04-29 02:33 35.33606 75.54065 7347 ft 56 kts 147°
2026-04-29 02:33 35.33444 75.54191 7348 ft 5 kts 147°
2026-04-29 02:33 35.33375 75.54246 7349 ft 18 kts 147°
2026-04-29 02:33 35.33291 75.54312 7353 ft 12 kts 147°
2026-04-29 02:34 35.33220 75.54353 7353 ft 11 kts 175°
2026-04-29 02:34 35.33183 75.54319 7352 ft 6 kts 235°
2026-04-29 02:34 35.33162 75.54276 7351 ft 0 kts 249°
2026-04-29 02:35 35.33165 75.54285 7358 ft 0 kts 243°
2026-04-29 02:35 35.33165 75.54284 7358 ft 0 kts 243°
2026-04-29 02:37 35.33171 75.54300 7359 ft 4 kts 243°
2026-04-29 02:37 35.33189 75.54334 7351 ft 7 kts 237°
2026-04-29 02:37 35.33195 75.54345 7355 ft 7 kts 238°
2026-04-29 02:37 35.33179 75.54313 7351 ft 0 kts 241°